| time (UTC) | temp C | wind direction | speed KPH | gust KPH | rain 1hr cm | rain 24hr cm | rain mn cm | humidity % | barometer mb |
| 20260502204701 | 15 | 178 | 0.0 | 0.0 | 0.00 | 0.00 | 0.00 | 45 | 1020.7 |
| 20260502203702 | 15 | 157 | 6.4 | 6.4 | 0.00 | 0.00 | 0.00 | 44 | 1020.9 |
| 20260502201706 | 16 | 99 | 0.0 | 6.4 | 0.00 | 0.00 | 0.00 | 44 | 1021.0 |
| 20260502195701 | 16 | 160 | 0.0 | 0.0 | 0.00 | 0.00 | 0.00 | 41 | 1021.1 |
| 20260502193701 | 17 | 164 | 1.6 | 1.6 | 0.00 | 0.00 | 0.00 | 39 | 1021.0 |
| 20260502192703 | 17 | 108 | 0.0 | 3.2 | 0.00 | 0.00 | 0.00 | 39 | 1021.0 |
| 20260502191701 | 17 | 88 | 0.0 | 4.8 | 0.00 | 0.00 | 0.00 | 38 | 1021.0 |
| 20260502190703 | 17 | 150 | 4.8 | 6.4 | 0.00 | 0.00 | 0.00 | 39 | 1021.0 |
| 20260502184701 | 17 | 292 | 0.0 | 0.0 | 0.00 | 0.00 | 0.00 | 37 | 1020.9 |
| 20260502183701 | 18 | 326 | 1.6 | 3.2 | 0.00 | 0.00 | 0.00 | 37 | 1020.7 |
| 20260502182704 | 18 | 322 | 0.0 | 4.8 | 0.00 | 0.00 | 0.00 | 35 | 1020.7 |
| 20260502181701 | 19 | 324 | 3.2 | 8.0 | 0.00 | 0.00 | 0.00 | 34 | 1020.7 |
| 20260502163701 | 30 | 327 | 11.3 | 11.3 | 0.00 | 0.00 | 0.00 | 17 | 1021.0 |
| 20260502162701 | 29 | 334 | 8.0 | 14.5 | 0.00 | 0.00 | 0.00 | 20 | 1021.2 |
| 20260502160704 | 30 | 354 | 8.0 | 11.3 | 0.00 | 0.00 | 0.00 | 20 | 1021.4 |
| 20260502151701 | 29 | 253 | 0.0 | 8.0 | 0.00 | 0.00 | 0.00 | 23 | 1021.9 |
| 20260502150701 | 28 | 19 | 1.6 | 11.3 | 0.00 | 0.00 | 0.00 | 26 | 1022.0 |
| 20260502130703 | 20 | 296 | 1.6 | 12.9 | 0.00 | 0.00 | 0.00 | 46 | 1023.4 |
| 20260502123702 | 18 | 268 | 3.2 | 14.5 | 0.00 | 0.00 | 0.00 | 52 | 1023.7 |
| 20260502122702 | 18 | 317 | 4.8 | 14.5 | 0.00 | 0.00 | 0.00 | 50 | 1023.7 |
| 20260502121702 | 17 | 312 | 6.4 | 9.7 | 0.00 | 0.00 | 0.00 | 52 | 1023.9 |
| 20260502120702 | 17 | 312 | 4.8 | 11.3 | 0.00 | 0.00 | 0.00 | 52 | 1024.0 |
| 20260502115702 | 17 | 284 | 1.6 | 8.0 | 0.00 | 0.00 | 0.00 | 52 | 1024.2 |
| 20260502114702 | 17 | 324 | 8.0 | 11.3 | 0.00 | 0.00 | 0.00 | 52 | 1024.2 |
| 20260502113702 | 17 | 333 | 8.0 | 8.0 | 0.00 | 0.00 | 0.00 | 50 | 1024.4 |
| 20260502112702 | 17 | 316 | 4.8 | 9.7 | 0.00 | 0.00 | 0.00 | 52 | 1024.5 |
| 20260502111702 | 17 | 327 | 6.4 | 12.9 | 0.00 | 0.00 | 0.00 | 55 | 1024.6 |
| 20260502110702 | 17 | 316 | 4.8 | 9.7 | 0.00 | 0.00 | 0.00 | 55 | 1024.7 |
| 20260502105702 | 17 | 326 | 3.2 | 6.4 | 0.00 | 0.00 | 0.00 | 52 | 1024.7 |
| 20260502104702 | 17 | 358 | 0.0 | 6.4 | 0.00 | 0.00 | 0.00 | 53 | 1024.8 |
| 20260502103702 | 16 | 330 | 6.4 | 8.0 | 0.00 | 0.00 | 0.00 | 51 | 1024.9 |
| 20260502102702 | 16 | 341 | 0.0 | 11.3 | 0.00 | 0.00 | 0.00 | 48 | 1025.1 |
| 20260502101702 | 16 | 330 | 9.7 | 9.7 | 0.00 | 0.00 | 0.00 | 47 | 1025.1 |
| 20260502100702 | 16 | 326 | 6.4 | 9.7 | 0.00 | 0.00 | 0.00 | 49 | 1025.2 |
| 20260502090702 | 15 | 323 | 8.0 | 9.7 | 0.00 | 0.00 | 0.00 | 47 | 1025.5 |
| 20260502070702 | 13 | 317 | 6.4 | 6.4 | 0.00 | 0.00 | 0.00 | 52 | 1025.6 |
| 20260502065702 | 13 | 331 | 1.6 | 6.4 | 0.00 | 0.00 | 0.00 | 52 | 1025.6 |
| 20260502064702 | 13 | 310 | 6.4 | 6.4 | 0.00 | 0.00 | 0.00 | 49 | 1025.6 |
| 20260502063702 | 13 | 329 | 0.0 | 0.0 | 0.00 | 0.00 | 0.00 | 54 | 1025.6 |
| 20260502062702 | 13 | 329 | 0.0 | 1.6 | 0.00 | 0.00 | 0.00 | 57 | 1025.8 |
| 20260502061702 | 13 | 94 | 0.0 | 0.0 | 0.00 | 0.00 | 0.00 | 57 | 1025.6 |
| 20260502060702 | 12 | 94 | 0.0 | 1.6 | 0.00 | 0.00 | 0.00 | 57 | 1025.6 |
| 20260502055702 | 12 | 127 | 3.2 | 4.8 | 0.00 | 0.00 | 0.00 | 58 | 1025.8 |
| 20260502054702 | 12 | 150 | 4.8 | 8.0 | 0.00 | 0.00 | 0.00 | 59 | 1025.6 |
| 20260502053702 | 12 | 163 | 4.8 | 6.4 | 0.00 | 0.00 | 0.00 | 58 | 1025.6 |
| 20260502052702 | 11 | 101 | 0.0 | 0.0 | 0.00 | 0.00 | 0.00 | 58 | 1025.6 |
| 20260502051702 | 11 | 101 | 0.0 | 0.0 | 0.00 | 0.00 | 0.00 | 57 | 1025.5 |
| 20260502050702 | 11 | 101 | 0.0 | 0.0 | 0.00 | 0.00 | 0.00 | 58 | 1025.5 |
| 20260502045702 | 11 | 101 | 0.0 | 0.0 | 0.00 | 0.00 | 0.00 | 58 | 1025.4 |
| 20260502044702 | 11 | 305 | 0.0 | 1.6 | 0.00 | 0.00 | 0.00 | 57 | 1025.4 |
| 20260502043702 | 11 | 289 | 0.0 | 3.2 | 0.00 | 0.00 | 0.00 | 59 | 1025.4 |
| 20260502042702 | 10 | 113 | 0.0 | 0.0 | 0.00 | 0.00 | 0.00 | 61 | 1025.4 |
| 20260502041702 | 10 | 113 | 0.0 | 0.0 | 0.00 | 0.00 | 0.00 | 61 | 1025.4 |
| 20260502040702 | 10 | 130 | 0.0 | 3.2 | 0.00 | 0.00 | 0.00 | 61 | 1025.3 |
| 20260502035703 | 10 | 158 | 0.0 | 0.0 | 0.00 | 0.00 | 0.00 | 61 | 1025.3 |
| 20260502034703 | 10 | 150 | 4.8 | 6.4 | 0.00 | 0.00 | 0.00 | 60 | 1025.3 |
| 20260502033703 | 10 | 286 | 0.0 | 0.0 | 0.00 | 0.00 | 0.00 | 59 | 1025.3 |
| 20260502032703 | 11 | 286 | 0.0 | 0.0 | 0.00 | 0.00 | 0.00 | 59 | 1025.3 |
| 20260502031703 | 10 | 306 | 0.0 | 0.0 | 0.00 | 0.00 | 0.00 | 60 | 1025.3 |
| 20260502030703 | 10 | 215 | 0.0 | 0.0 | 0.00 | 0.00 | 0.00 | 60 | 1025.3 |
| 20260502025703 | 10 | 215 | 0.0 | 0.0 | 0.00 | 0.00 | 0.00 | 61 | 1025.3 |
| 20260502024703 | 10 | 181 | 0.0 | 1.6 | 0.00 | 0.00 | 0.00 | 61 | 1025.4 |
| 20260502023703 | 10 | 149 | 0.0 | 0.0 | 0.00 | 0.00 | 0.00 | 60 | 1025.4 |
| 20260502022703 | 10 | 149 | 0.0 | 3.2 | 0.00 | 0.00 | 0.00 | 60 | 1025.4 |
| 20260502021703 | 10 | 185 | 4.8 | 4.8 | 0.00 | 0.00 | 0.00 | 61 | 1025.5 |
| 20260502020703 | 10 | 158 | 6.4 | 6.4 | 0.00 | 0.00 | 0.00 | 61 | 1025.5 |
| 20260502015703 | 10 | 164 | 8.0 | 8.0 | 0.00 | 0.00 | 0.00 | 60 | 1025.5 |
| 20260502014703 | 10 | 147 | 4.8 | 4.8 | 0.00 | 0.00 | 0.00 | 59 | 1025.5 |
| 20260502013703 | 10 | 167 | 1.6 | 4.8 | 0.00 | 0.00 | 0.00 | 59 | 1025.5 |
| 20260502012703 | 10 | 219 | 0.0 | 0.0 | 0.00 | 0.00 | 0.00 | 58 | 1025.6 |
| 20260502011703 | 10 | 219 | 0.0 | 0.0 | 0.00 | 0.00 | 0.00 | 58 | 1025.6 |
| 20260502010703 | 10 | 219 | 0.0 | 0.0 | 0.00 | 0.00 | 0.00 | 59 | 1025.6 |
| 20260502005703 | 10 | 219 | 0.0 | 0.0 | 0.00 | 0.00 | 0.00 | 58 | 1025.6 |
| 20260502004703 | 10 | 219 | 0.0 | 0.0 | 0.00 | 0.00 | 0.00 | 58 | 1025.8 |
| 20260502003703 | 10 | 219 | 0.0 | 0.0 | 0.00 | 0.00 | 0.00 | 58 | 1025.8 |
| 20260502002703 | 10 | 219 | 0.0 | 0.0 | 0.00 | 0.00 | 0.00 | 59 | 1025.9 |
| 20260502001703 | 10 | 150 | 4.8 | 8.0 | 0.00 | 0.00 | 0.00 | 58 | 1025.9 |
| 20260502000703 | 10 | 151 | 3.2 | 4.8 | 0.00 | 0.00 | 0.00 | 56 | 1026.0 |
| 20260501235703 | 11 | 142 | 1.6 | 3.2 | 0.00 | 0.00 | 0.00 | 56 | 1026.0 |
| 20260501234703 | 11 | 150 | 4.8 | 4.8 | 0.00 | 0.00 | 0.00 | 55 | 1026.1 |
| 20260501233703 | 11 | 165 | 0.0 | 1.6 | 0.00 | 0.00 | 0.00 | 53 | 1026.1 |
| 20260501232703 | 11 | 285 | 0.0 | 0.0 | 0.00 | 0.00 | 0.00 | 53 | 1026.1 |
| 20260501231703 | 11 | 87 | 0.0 | 0.0 | 0.00 | 0.00 | 0.00 | 54 | 1026.1 |
| 20260501230703 | 11 | 87 | 0.0 | 0.0 | 0.00 | 0.00 | 0.00 | 54 | 1026.1 |
| 20260501225703 | 11 | 87 | 0.0 | 0.0 | 0.00 | 0.00 | 0.00 | 53 | 1026.1 |
| 20260501224703 | 11 | 195 | 0.0 | 0.0 | 0.00 | 0.00 | 0.00 | 52 | 1026.2 |
| 20260501223703 | 11 | 195 | 0.0 | 0.0 | 0.00 | 0.00 | 0.00 | 52 | 1026.2 |
| 20260501222703 | 11 | 195 | 0.0 | 0.0 | 0.00 | 0.00 | 0.00 | 52 | 1026.3 |
| 20260501221703 | 11 | 195 | 0.0 | 0.0 | 0.00 | 0.00 | 0.00 | 54 | 1026.5 |
| 20260501220703 | 11 | 195 | 0.0 | 0.0 | 0.00 | 0.00 | 0.00 | 52 | 1026.3 |
| 20260501215703 | 12 | 195 | 0.0 | 3.2 | 0.00 | 0.00 | 0.00 | 52 | 1026.3 |
| 20260501214703 | 12 | 330 | 0.0 | 0.0 | 0.00 | 0.00 | 0.00 | 49 | 1026.2 |
| 20260501213703 | 12 | 330 | 0.0 | 0.0 | 0.00 | 0.00 | 0.00 | 48 | 1026.2 |
| 20260501212703 | 12 | 330 | 0.0 | 0.0 | 0.00 | 0.00 | 0.00 | 48 | 1026.3 |
| 20260501211703 | 12 | 330 | 0.0 | 0.0 | 0.00 | 0.00 | 0.00 | 47 | 1026.3 |
| 20260501210703 | 12 | 330 | 0.0 | 0.0 | 0.00 | 0.00 | 0.00 | 47 | 1026.2 |
| 20260501205703 | 12 | 330 | 0.0 | 0.0 | 0.00 | 0.00 | 0.00 | 47 | 1026.2 |